This is the latest recevied weather packets stored in our database for station/object KB4MLW-13. If no packets are shown the sender has not sent any weather packets the latest 10 day(s).
| Time | Temp. | Humidity | Pressure | Rain* | Wind** | Luminosity | Snow |
|---|---|---|---|---|---|---|---|
| 1788216240 | 32.78° C | 64% | 1000.9 hPa | 0 mm | - | - | - |
| 1788216178 | 32.78° C | 65% | 1000.8 hPa | 0 mm | - | - | - |
| 1788216089 | 32.78° C | 62% | 1000.5 hPa | 0 mm | - | - | - |
| 1788216028 | 32.78° C | 64% | 1000.9 hPa | 0 mm | - | - | - |
| 1788215939 | 32.78° C | 63% | 1000.7 hPa | 0 mm | - | - | - |
| 1788215849 | 32.78° C | 60% | 1000.6 hPa | 0 mm | - | - | - |
| 1788215788 | 32.78° C | 60% | 1000.6 hPa | 0 mm | - | - | - |
| 1788215728 | 32.78° C | 61% | 1000.7 hPa | 0 mm | - | - | - |
| 1788215667 | 32.78° C | 61% | 1000.7 hPa | 0 mm | - | - | - |
| 1788215579 | 32.78° C | 62% | 1000.8 hPa | 0 mm | - | - | - |
| 1788215518 | 32.78° C | 63% | 1000.7 hPa | 0 mm | - | - | - |
| 1788215432 | 32.78° C | 61% | 1000.8 hPa | 0 mm | - | - | - |
| 1788215339 | 32.78° C | 61% | 1000.8 hPa | 0 mm | - | - | - |
| 1788215278 | 32.78° C | 65% | 1000.7 hPa | 0 mm | - | - | - |
| 1788215218 | 32.78° C | 61% | 1000.9 hPa | 0 mm | - | - | - |
| 1788215159 | 32.78° C | 63% | 1000.9 hPa | 0 mm | - | - | - |
| 1788215068 | 33.33° C | 62% | 1000.7 hPa | 0 mm | - | - | - |
| 1788215008 | 33.33° C | 62% | 1000.8 hPa | 0 mm | - | - | - |
| 1788214948 | 33.33° C | 61% | 1000.7 hPa | 0 mm | - | - | - |
| 1788214888 | 33.33° C | 61% | 1000.7 hPa | 0 mm | - | - | - |
| 1788214828 | 33.33° C | 63% | 1000.7 hPa | 0 mm | - | - | - |
| 1788214768 | 33.33° C | 61% | 1000.8 hPa | 0 mm | - | - | - |
| 1788214709 | 33.33° C | 62% | 1000.7 hPa | 0 mm | - | - | - |
| 1788214648 | 33.33° C | 60% | 1000.8 hPa | 0 mm | - | - | - |
| 1788214588 | 33.33° C | 61% | 1000.6 hPa | 0 mm | - | - | - |
* Rain latest hour (hover to see other rain measurements)
** Current wind speed in m/s (hover to see current wind gust speed)